Terug naar catalogus

FENGYUN 1C DEB

ActiefSSO
NORAD 30336·DEBRIS·🇨🇳 China

Gelanceerd May 10, 1999 vanaf Taiyuan Satellite Launch Center

Loading…

Volgende Passages (komende 24 uur)

TLE

VersSource: Space-Track

Epoch: Sep 13, 2026, 23:19 UTC

1 30336U 99025AAX 26256.97157461  .00000382  00000-0  19935-3 0  9994
2 30336  98.5845 274.7228 0042158 292.8924 132.9998 14.19657638 15045

Volg FENGYUN 1C DEB in realtime met AllMySat

Download on the App Store